JES3071 SAME-SABE

Flight info

Callsign JES3071
Flight time N/A
Altitude 39000
Route KAMUV2C KAMUV UT670 SNT SNT8Q
Aircraft A320/M-SDE3FGHIRWY/LB1

Departure

Time 2026-05-09 19:09
Airport Governor Francisco Gabrielli International Airport (SAME)

Arrival

Time N/A
Airport Aeroparque Jorge Newbery (SABE)
Time Latitude Longitude Altitude Speed Heading
2026-05-09 18:48 -32.82764 -68.79780 2329 ft 0 kts 265°
2026-05-09 19:00 -32.82764 -68.79779 2329 ft 1 kts 265°
2026-05-09 19:00 -32.82763 -68.79768 2329 ft 2 kts 263°
2026-05-09 19:01 -32.82762 -68.79753 2329 ft 4 kts 267°
2026-05-09 19:01 -32.82760 -68.79736 2332 ft 3 kts 246°
2026-05-09 19:01 -32.82749 -68.79717 2331 ft 3 kts 215°
2026-05-09 19:01 -32.82734 -68.79709 2332 ft 2 kts 191°
2026-05-09 19:02 -32.82726 -68.79707 2331 ft 2 kts 185°
2026-05-09 19:02 -32.82722 -68.79706 2332 ft 0 kts 180°
2026-05-09 19:03 -32.82723 -68.79706 2332 ft 1 kts 180°
2026-05-09 19:03 -32.82756 -68.79707 2332 ft 8 kts 182°
2026-05-09 19:04 -32.82834 -68.79709 2332 ft 13 kts 181°
2026-05-09 19:04 -32.82911 -68.79710 2332 ft 10 kts 177°
2026-05-09 19:04 -32.82932 -68.79641 2332 ft 11 kts 93°
2026-05-09 19:04 -32.82978 -68.79571 2332 ft 12 kts 141°
2026-05-09 19:05 -32.83072 -68.79511 2333 ft 20 kts 180°
2026-05-09 19:05 -32.83221 -68.79515 2334 ft 23 kts 181°
2026-05-09 19:05 -32.83388 -68.79519 2334 ft 25 kts 181°
2026-05-09 19:05 -32.83570 -68.79523 2334 ft 27 kts 181°
2026-05-09 19:06 -32.83711 -68.79526 2334 ft 21 kts 181°
2026-05-09 19:06 -32.83854 -68.79529 2334 ft 12 kts 181°
2026-05-09 19:06 -32.83948 -68.79531 2334 ft 15 kts 181°
2026-05-09 19:06 -32.84025 -68.79532 2334 ft 10 kts 177°
2026-05-09 19:07 -32.84088 -68.79491 2334 ft 11 kts 163°
2026-05-09 19:07 -32.84168 -68.79458 2335 ft 13 kts 161°
2026-05-09 19:07 -32.84255 -68.79414 2336 ft 14 kts 135°
2026-05-09 19:07 -32.84247 -68.79317 2338 ft 14 kts 29°
2026-05-09 19:08 -32.84223 -68.79313 2339 ft 0 kts
2026-05-09 19:08 -32.84217 -68.79313 2338 ft 5 kts
2026-05-09 19:08 -32.83965 -68.79308 2336 ft 72 kts
2026-05-09 19:08 -32.83260 -68.79293 2334 ft 127 kts
2026-05-09 19:09 -32.82232 -68.79266 2484 ft 160 kts
2026-05-09 19:09 -32.81103 -68.79239 3117 ft 164 kts
2026-05-09 19:09 -32.79959 -68.79216 3711 ft 174 kts
2026-05-09 19:09 -32.78668 -68.79204 4061 ft 196 kts
2026-05-09 19:10 -32.77204 -68.79160 4314 ft 226 kts
2026-05-09 19:10 -32.75743 -68.78333 4895 ft 246 kts 46°
2026-05-09 19:10 -32.74933 -68.76515 5831 ft 255 kts 74°
2026-05-09 19:10 -32.74586 -68.74420 6777 ft 262 kts 83°
2026-05-09 19:11 -32.74363 -68.72245 7667 ft 268 kts 85°
2026-05-09 19:11 -32.74121 -68.70034 8612 ft 272 kts 84°
2026-05-09 19:11 -32.73815 -68.67789 9539 ft 277 kts 82°
2026-05-09 19:11 -32.73440 -68.65514 10410 ft 283 kts 81°
2026-05-09 19:12 -32.73153 -68.63191 11221 ft 285 kts 91°
2026-05-09 19:12 -32.73294 -68.60808 11801 ft 298 kts 104°
2026-05-09 19:12 -32.73789 -68.58322 12115 ft 321 kts 107°
2026-05-09 19:12 -32.74326 -68.55691 12710 ft 333 kts 107°
2026-05-09 19:13 -32.74862 -68.53025 13521 ft 338 kts 106°
2026-05-09 19:13 -32.75410 -68.50254 14418 ft 341 kts 107°
2026-05-09 19:13 -32.75946 -68.47530 15231 ft 343 kts 108°
2026-05-09 19:13 -32.76493 -68.44758 16058 ft 344 kts 108°
2026-05-09 19:14 -32.77040 -68.41985 16890 ft 346 kts 109°
2026-05-09 19:14 -32.77587 -68.39199 17731 ft 347 kts 110°
2026-05-09 19:14 -32.78139 -68.36406 18567 ft 348 kts 110°
2026-05-09 19:14 -32.78696 -68.33598 19284 ft 350 kts 111°
2026-05-09 19:15 -32.79257 -68.30777 20000 ft 352 kts 111°
2026-05-09 19:15 -32.79816 -68.27962 20728 ft 355 kts 111°
2026-05-09 19:15 -32.80386 -68.25088 21451 ft 358 kts 111°
2026-05-09 19:15 -32.80953 -68.22190 22140 ft 362 kts 111°
2026-05-09 19:16 -32.81524 -68.19258 22827 ft 365 kts 111°
2026-05-09 19:16 -32.82100 -68.16302 23576 ft 367 kts 111°
2026-05-09 19:16 -32.82677 -68.13332 24253 ft 369 kts 112°
2026-05-09 19:16 -32.83248 -68.10384 24863 ft 371 kts 112°
2026-05-09 19:17 -32.83831 -68.07380 25491 ft 373 kts 112°
2026-05-09 19:17 -32.84416 -68.04369 26116 ft 374 kts 112°
2026-05-09 19:17 -32.85003 -68.01348 26741 ft 376 kts 112°
2026-05-09 19:17 -32.85593 -67.98310 27363 ft 378 kts 112°
2026-05-09 19:18 -32.86185 -67.95256 27976 ft 380 kts 112°
2026-05-09 19:18 -32.86779 -67.92184 28588 ft 382 kts 113°
2026-05-09 19:18 -32.87374 -67.89099 29192 ft 384 kts 113°
2026-05-09 19:18 -32.87973 -67.85998 29783 ft 386 kts 113°
2026-05-09 19:19 -32.88575 -67.82876 30356 ft 388 kts 113°
2026-05-09 19:19 -32.89181 -67.79728 30817 ft 391 kts 113°
2026-05-09 19:19 -32.89782 -67.76599 31199 ft 395 kts 113°
2026-05-09 19:19 -32.90396 -67.73396 31553 ft 399 kts 113°
2026-05-09 19:20 -32.91019 -67.70158 31898 ft 403 kts 114°
2026-05-09 19:20 -32.91648 -67.66897 32312 ft 404 kts 114°
2026-05-09 19:20 -32.92282 -67.63636 32762 ft 405 kts 114°
2026-05-09 19:20 -32.92919 -67.60364 33230 ft 406 kts 114°
2026-05-09 19:21 -32.93560 -67.57083 33685 ft 407 kts 114°
2026-05-09 19:21 -32.94192 -67.53844 34211 ft 407 kts 115°
2026-05-09 19:21 -32.94827 -67.50572 34744 ft 405 kts 115°
2026-05-09 19:21 -32.95458 -67.47310 35227 ft 404 kts 115°
2026-05-09 19:22 -32.96088 -67.44049 35669 ft 404 kts 115°
2026-05-09 19:22 -32.96719 -67.40786 36090 ft 404 kts 115°
2026-05-09 19:22 -32.97351 -67.37520 36501 ft 405 kts 114°
2026-05-09 19:22 -32.97986 -67.34236 36894 ft 405 kts 114°
2026-05-09 19:23 -32.98620 -67.30963 37262 ft 406 kts 114°
2026-05-09 19:23 -32.99256 -67.27677 37372 ft 407 kts 114°
2026-05-09 19:23 -33.00519 -67.21097 37454 ft 407 kts 114°
2026-05-09 19:24 -33.01771 -67.14550 37382 ft 404 kts 114°
2026-05-09 19:24 -33.03005 -67.08063 37377 ft 404 kts 114°